Lumberton, NC

5:22 AM EDT on September 26, 2017 (GMT -0400)
Lumberton Municipal

Weather History for KLBT - February, 2014

Change the Weather History Date:

Sunday, February 9, 2014

  Actual Average Record
Temperature  
Mean Temperature 44 °F 46 °F  
Max Temperature 59 °F 57 °F 72 °F (2015)
Min Temperature 29 °F 35 °F 25 °F (2006)
Degree Days  
Heating Degree Days 21 19  
Month to date heating degree days 172 181  
Since 1 July heating degree days 1941 1900  
Cooling Degree Days 0 0  
Month to date cooling degree days 0 0  
Year to date cooling degree days 0 1  
Moisture  
Dew Point 35 °F    
Average Humidity 74    
Maximum Humidity 100    
Minimum Humidity 47    
Precipitation  
Precipitation 0.00 in 0.10 in 0.14 in (2017)
Month to date precipitation 0.62 0.80  
Year to date precipitation 3.69 3.77  
Sea Level Pressure  
Sea Level Pressure 30.11 in    
Wind  
Wind Speed 4 mph (South)    
Max Wind Speed 15 mph    
Max Gust Speed 20 mph    
Visibility 7 miles    
Events      
T = Trace of Precipitation, MM = Missing Value Source: NWS Daily Summary

Daily Weather History Graph

Daily Weather History Graph

Search for Another Location

Airport or City:

Trip Planner

Search our weather history database for the weather conditions in past years. The results will help you decide how hot, cold, wet, or windy it might be!

Date:

Astronomy

Feb. 09, 2014 Rise Set
Actual Time 7:07 AM EST 5:53 PM EST
Civil Twilight 6:41 AM EST 6:19 PM EST
Nautical Twilight 6:11 AM EST 6:49 PM EST
Astronomical Twilight 5:42 AM EST 7:18 PM EST
Moon 1:36 PM EST (2/9) 3:07 AM EST (2/9)
Length of Visible Light 11h 38m
Length of Day
10h 46m
Waxing Gibbous, 77% of the Moon is Illuminated
Feb 9
Waxing Gibbous
Feb 14
Full
Feb 22
Last Quarter
Mar 1
New
Mar 8
First Quarter

Hourly Weather History & Observations

Time (EST) Temp. Windchill Dew Point Humidity Pressure Visibility Wind Dir Wind Speed Gust Speed Precip Events Conditions
12:54 AM 30.9 °F - 28.9 °F 92% 30.17 in 4.0 mi Calm Calm - N/A   Clear
1:54 AM 32.0 °F - 30.9 °F 96% 30.17 in 4.0 mi Calm Calm - N/A   Clear
2:22 AM 30.0 °F - 28.9 °F 96% 30.17 in 2.5 mi Calm Calm - N/A   Clear
2:37 AM 30.0 °F - 28.9 °F 96% 30.16 in 3.0 mi Calm Calm - N/A   Clear
2:54 AM 30.9 °F - 28.9 °F 92% 30.16 in 3.0 mi Calm Calm - N/A   Clear
3:54 AM 30.9 °F - 28.9 °F 92% 30.14 in 3.0 mi Calm Calm - N/A   Clear
4:54 AM 30.0 °F - 28.0 °F 92% 30.15 in 5.0 mi Calm Calm - N/A   Clear
5:54 AM 30.9 °F - 28.9 °F 92% 30.15 in 4.0 mi Calm Calm - N/A   Clear
6:54 AM 30.9 °F - 30.0 °F 96% 30.16 in 3.0 mi Calm Calm - N/A   Clear
7:15 AM 30.9 °F - 28.9 °F 92% 30.16 in 2.5 mi Calm Calm - N/A   Clear
7:54 AM 32.0 °F 28.7 °F 30.0 °F 92% 30.16 in 2.5 mi ESE 3.5 mph - N/A   Clear
8:28 AM 35.1 °F 32.2 °F 33.1 °F 92% 30.17 in 3.0 mi SE 3.5 mph - N/A   Clear
8:54 AM 37.0 °F 34.5 °F 34.0 °F 89% 30.18 in 3.0 mi SE 3.5 mph - N/A   Partly Cloudy
9:54 AM 39.9 °F 37.8 °F 35.1 °F 83% 30.19 in 5.0 mi SE 3.5 mph - N/A   Haze
10:54 AM 44.1 °F 41.5 °F 36.0 °F 73% 30.17 in 8.0 mi SSE 4.6 mph - N/A   Overcast
11:54 AM 48.9 °F - 35.1 °F 59% 30.14 in 10.0 mi South 6.9 mph - N/A   Overcast
12:54 PM 54.0 °F - 37.0 °F 53% 30.09 in 10.0 mi South 9.2 mph - N/A   Partly Cloudy
1:54 PM 55.9 °F - 39.0 °F 53% 30.08 in 10.0 mi SW 11.5 mph - N/A   Overcast
2:54 PM 57.9 °F - 39.9 °F 51% 30.04 in 10.0 mi SSW 10.4 mph - N/A   Clear
3:54 PM 59.0 °F - 39.9 °F 49% 30.01 in 10.0 mi SW 12.7 mph 17.3 mph N/A   Clear
4:54 PM 59.0 °F - 39.9 °F 49% 29.98 in 10.0 mi SSW 9.2 mph - N/A   Clear
5:54 PM 55.0 °F - 39.9 °F 57% 29.99 in 10.0 mi SSW 6.9 mph - N/A   Clear
6:54 PM 51.1 °F - 41.0 °F 68% 30.01 in 10.0 mi SSW 4.6 mph - N/A   Clear
7:54 PM 50.0 °F - 39.9 °F 68% 30.04 in 10.0 mi South 4.6 mph - N/A   Mostly Cloudy
8:54 PM 48.9 °F - 39.9 °F 71% 30.05 in 10.0 mi SSE 3.5 mph - N/A   Clear
9:54 PM 48.0 °F - 42.1 °F 80% 30.05 in 10.0 mi South 3.5 mph - N/A   Clear
10:54 PM 48.0 °F - 41.0 °F 77% 30.06 in 10.0 mi SW 6.9 mph - N/A   Clear
11:54 PM 44.1 °F - 39.0 °F 82% 30.05 in 10.0 mi Calm Calm - N/A   Clear